www.pogodaiklimat.ru
ПОГОДА в Балтиморе
Время
и дата
07:47 19.05
08:54 19.05
09:36 19.05
09:54 19.05
10:54 19.05
11:54 19.05
12:54 19.05
13:58 19.05
14:55 19.05
15:53 19.05
16:53 19.05
17:53 19.05
18:53 19.05
19:53 19.05
20:45 19.05
04:54 20.05
05:54 20.05
06:54 20.05
07:12 20.05
07:54 20.05
08:08 20.05
08:55 20.05
09:55 20.05
10:59 20.05
11:58 20.05
12:45 20.05
13:45 20.05
14:53 20.05
15:53 20.05
16:53 20.05
17:53 20.05
18:53 20.05
19:53 20.05
20:45 20.05
21:09 20.05
21:29 20.05
21:49 20.05
22:09 20.05
22:29 20.05
22:49 20.05
23:09 20.05
23:29 20.05
23:49 20.05
00:09 21.05
00:29 21.05
00:49 21.05
01:09 21.05
01:29 21.05
Ветер
(напр.,м/с)
Видим. Явления Облачность Т
(С)
Тd
(С)
f
(%)
Тe
(С)
Тes
(С)
Комфортность P
(гПа)
Po
(гПа)
Тmin
(С)
Tmax
(С)
R
(мм)
R24
(мм)
S
(см)
штиль 0 8 км дымка 10/10 150 м +17.0 +17.0 100 +17 +17 1015.6 TN
штиль 0 6 км дымка 10/10 180 м +18.0 +17.0 94 +18 +18 1015.6 TN
штиль 0 11 км дымка 10/10 300 м +20.0 +17.0 83 +23 +23 комфорт 1015.6 TN
штиль 0 16 км дымка 10/10 390 м +20.0 +17.0 83 +23 +23 комфорт 1015.6 TN
штиль 0 16 км 10/10 540 м +20.0 +17.0 83 +23 +23 комфорт 1016.0 TN
ЮВ 2 16 км 10/10 540 м +20.0 +17.0 83 +23 +23 комфорт 1015.6 TN
штиль 0 16 км 10/10 630 м +21.0 +17.0 78 +25 +25 комфорт 1015.3 TN
Ю 2 16 км 8/8 900 м +22.0 +17.0 73 +26 +30 душно 1014.6 TN
штиль 0 16 км 8/8 930 м +22.0 +17.0 73 +26 +31 душно 1014.3 TN
Ю 2 16 км 8/8 870 м +22.0 +17.0 73 +26 +29 душно 1014.6 TN
штиль 0 16 км 5/0 2100 m
[Ac]
+23.0 +17.0 69 +28 +35 душно 1014.3 TN
ЮВ 2 16 км ясно +22.0 +17.0 73 +26 +30 душно 1013.9 TN
ЮВ 2 16 км ясно +21.0 +17.0 78 +26 +27 душно 1014.3 TN
штиль 0 16 км ясно +19.0 +17.0 88 +20 +20 1014.6 TN
штиль 0 16 км ясно +18.0 +17.0 94 +18 +18 1015.3 TN
В 2 16 км 10/10 270 м +15.0 +14.0 94 +15 +15 1016.3 TN
штиль 0 16 км 10/10 270 м +15.0 +13.0 88 +15 +15 1017.3 TN
штиль 0 16 км 10/10 300 м +16.0 +13.0 82 +16 +16 1018.0 TN
штиль 0 16 км 8/8 300 м +16.0 +14.0 88 +16 +17 1018.3 TN
штиль 0 16 км 8/8 360 м +17.0 +14.0 82 +17 +18 1018.7 TN
ЮВ 2 16 км 10/10 360 м +17.0 +14.0 82 +17 +17 1018.7 TN
ЮВ 2 16 км 10/10 630 м +17.0 +15.0 88 +17 +17 1018.3 TN
штиль 0 16 км 10/10 480 м +18.0 +15.0 83 +18 +18 1018.3 TN
ЮВ 2 16 км 10/10 510 м +19.0 +15.0 78 +21 +21 комфорт 1018.3 TN
ЮВ 2 16 км 10/10 570 м +20.0 +16.0 78 +23 +23 комфорт 1017.7 TN
ЮВ 3 16 км 10/10 600 м +21.0 +17.0 78 +25 +25 комфорт 1017.3 TN
ЮВ 4 16 км ясно +21.0 +17.0 78 +25 +38 комфорт 1017.0 TN
ЮВ 4 16 км ясно +22.0 +16.0 69 +26 +37 душно 1016.6 TN
ЮВ 4 16 км ясно +22.0 +17.0 73 +26 +35 душно 1016.0 TN
В 3 16 км ясно +22.0 +17.0 73 +26 +33 душно 1015.6 TN
штиль 0 16 км ясно +22.0 +17.0 73 +26 +32 душно 1015.3 TN
штиль 0 16 км ясно +21.0 +17.0 78 +25 +26 комфорт 1015.6 TN
штиль 0 16 км ясно +20.0 +17.0 83 +23 +23 комфорт 1015.6 TN
штиль 0 16 км ясно +18.0 +17.0 94 +18 +18 1016.0 TN
штиль 0 16 км ясно +17.0 +17.0 100 +17 +17 1016.3 TN
штиль 0 16 км ясно +18.0 +17.0 94 +18 +18 1016.3 TN
штиль 0 16 км ясно +17.0 +17.0 100 +17 +17 1016.3 TN
штиль 0 16 км ясно +17.0 +17.0 100 +17 +17 1016.0 TN
штиль 0 16 км ясно +17.0 +17.0 100 +17 +17 1015.6 TN
штиль 0 16 км ясно +17.0 +17.0 100 +17 +17 1015.6 TN
штиль 0 16 км ясно +17.0 +17.0 100 +17 +17 1015.6 TN
штиль 0 16 км ясно +17.0 +17.0 100 +17 +17 1015.6 TN
штиль 0 11 км ясно +17.0 +16.0 94 +17 +17 1015.6 TN
штиль 0 11 км ясно +16.0 +16.0 100 +16 +16 1015.6 TN
штиль 0 8 км дымка ясно +16.0 +16.0 100 +16 +16 1015.6 TN
штиль 0 11 км ясно +16.0 +16.0 100 +16 +16 1015.6 TN
штиль 0 8 км дымка ясно +16.0 +16.0 100 +16 +16 1015.6 TN
штиль 0 11 км ясно +16.0 +16.0 100 +16 +16 1015.6 TN
Местоположение метеостанции Martin State Airport: широта 39.3300 долгота -76.4200 высота над уровнем моря 7 м.
В архиве по умолчанию представлена погода в Балтиморе за последние 1-2 суток. Обновление информации о фактической погоде в базе происходит ежечасно! Архивные данные за месяц целиком и за предыдущие месяцы Вы можете получить, выбрав интересующий диапазон дат из раскрывающегося списка и нажав кнопку "Ввод!".
Внимание! Архив погоды МЕТАР в базе сайта по станциям, не включенным в климатический монитор, хранится не более 60 дней. Нет смысла пытаться выбрать более раннюю дату.
*Определитесь, кто Вы:
Внимание! Время в таблицах - местное (без учета летнего времени). Для получения всемирного времени необходимо вычесть поправку, которая равна -5 ч.
Смотрите также архив погоды в соседних городах и на ближайших метеорологических станциях:
Партнеры нашего сайта:      
Пояснения к столбцам:
  • Ветер - указаны скорость ветра в м/с - средняя за 10 мин, порывы в срок и между сроками (в фигурных скобках) и направление, откуда дует ветер: С - северный,
  • СВ - северо-восточный, В - восточный, ЮВ - юго-восточный, Ю - южный, ЮЗ - юго-западный, З - западный, СЗ - северо-западный.
  • Видимость - горизонтальная дальность видимости в метрах или километрах. При видимости от 1 до 10 км при отсутствии осадков обычно наблюдается дымка, при ухудшении видимости до 1 км и менее - туман. В сухую погоду видимость может ухудшаться дымом, пылью или мглою.
  • Явления - указаны атмосферные явления, наблюдавшиеся в срок или в последний час перед сроком; фигурными скобками обозначены явления, наблюдавшиеся между сроками (за 1-3 часа до срока); квадратными скобками обозначены град или гололедные отложения с указанием их диаметра в мм.
  • Облачность - указаны через наклонную черту общая и нижняя облачность в баллах и высота нижней границы облаков в метрах; квадратными скобками обозначены формы облаков: Ci - перистые, Cs - перисто-слоистые, Cc - перисто-кучевые, Ac - высококучевые, As - высокослоистые, Sc - слоисто-кучевые, Ns - слоисто-дождевые, Cu - кучевые, Cb - кучево-дождевые. Подробнее классификацию облаков см. в Атласе облаков (PDF).
  • T - Температура воздуха - температура, измеренная на высоте 2 м над землей.
  • Td - Температура точки росы - температура, при понижении до которой содержащийся в воздухе водяной пар достигнет насыщения.
  • f - Относительная влажность воздуха - влажноcть воздуха, измеренная на высоте 2 м над землей.
  • Te - Эффективная температура - температура, которую ощущает одетый по сезону человек в тени. Характеристика душности погоды. При расчете учитывается влияние влажности воздуха и скорости ветра на теплоощущения человека.
  • Tes - Эффективная температура на солнце - температура, которую ощущает человек, с поправкой на солнечный нагрев. Характеристика знойности погоды. Зависит от высоты солнца над горизонтом, облачности и скорости ветра. Ночью, в пасмурную погоду, а также при ветре 12 м/с и более поправка равна нулю.
  • P - Атмосферное давление - приведенное к уровню моря атмосферное давление.
  • Po - Атмосферное давление - измеренное на уровне метеостанции атмосферное давление.
  • Tmin - Минимальная температура - минимум температуры воздуха на высоте 2 м над землей.
  • Tmax - Максимальная температура - максимум температуры воздуха на высоте 2 м над землей.
  • R - Количество осадков - Количество выпавших осадков за период времени, мм. При наведении курсора мыши на число - период времени, за который выпало указанное количество осадков.
  • R24 - Количество осадков - Количество выпавших осадков за 24 часа, мм.
  • S - Снежный покров - Высота снежного покрова, см. При наведении курсора мыши на число - состояние снежного покрова и степень покрытия местности в баллах.